Weather History for Faribault, MN

Change the Weather History Date:

Sunday, November 24, 2013

  Actual Average Record
Temperature  
Mean Temperature 19 °F -  
Max Temperature 32 °F 34 °F 60 °F (2011)
Min Temperature 6 °F 18 °F -7 °F (1985)
Degree Days  
Heating Degree Days 46    
Moisture  
Dew Point 5 °F    
Average Humidity 52    
Maximum Humidity 72    
Minimum Humidity 37    
Precipitation  
Precipitation 0.00 in - - ()
Sea Level Pressure  
Sea Level Pressure 30.36 in    
Wind  
Wind Speed 8 mph (South)    
Max Wind Speed 22 mph    
Max Gust Speed 33 mph    
Visibility 10 miles    
Events      
Averages and records for this station are not official NWS values.
T = Trace of Precipitation, MM = Missing Value Source: NWS Daily Summary

Daily Weather History Graph

Daily Weather History Graph

Search for Another Location

Airport:

Trip Planner

Search our weather history database for the weather conditions in past years. The results will help you decide how hot, cold, wet, or windy it might be!

Date:

Astronomy

Nov. 24, 2013 Rise Set
Actual Time 7:21 AM CST 4:38 PM CST
Civil Twilight 6:48 AM CST 5:10 PM CST
Nautical Twilight 6:13 AM CST 5:46 PM CST
Astronomical Twilight 5:38 AM CST 6:21 PM CST
Moon 11:12 PM CST (11/24) 12:02 PM CST (11/24)
Length of Visible Light 10h 21m
Length of Day
9h 17m
Waning Gibbous, 60% of the Moon is Illuminated
Nov 24
Waning Gibbous
Nov 25
Last Quarter
Dec 2
New
Dec 9
First Quarter
Dec 17
Full

Hourly Weather History & Observations

Time (CST) Temp. Windchill Dew Point Humidity Pressure Visibility Wind Dir Wind Speed Gust Speed Precip Events Conditions
12:14 AM 8.6 °F 2.0 °F -0.4 °F 67% 30.69 in 10.0 mi SSW 3.5 mph - N/A   Clear
12:34 AM 8.6 °F 2.0 °F -2.2 °F 62% 30.68 in 10.0 mi South 3.5 mph - N/A   Clear
12:54 AM 8.6 °F - -2.2 °F 62% 30.69 in 10.0 mi Calm Calm - N/A   Clear
1:14 AM 8.6 °F - -2.2 °F 62% 30.67 in 10.0 mi Calm Calm - N/A   Clear
1:34 AM 6.8 °F - -2.2 °F 67% 30.67 in 10.0 mi Calm Calm - N/A   Clear
1:54 AM 6.8 °F - -0.4 °F 72% 30.66 in 10.0 mi Calm Calm - N/A   Clear
2:13 AM 6.8 °F -0.1 °F -0.4 °F 72% 30.65 in 10.0 mi SSE 3.5 mph - N/A   Clear
2:34 AM 8.6 °F 0.1 °F -0.4 °F 67% 30.65 in 10.0 mi South 4.6 mph - N/A   Clear
2:54 AM 8.6 °F 0.1 °F -0.4 °F 67% 30.64 in 10.0 mi South 4.6 mph - N/A   Clear
3:14 AM 8.6 °F 2.0 °F -0.4 °F 67% 30.63 in 10.0 mi South 3.5 mph - N/A   Clear
3:34 AM 8.6 °F 2.0 °F -0.4 °F 67% 30.62 in 10.0 mi SSE 3.5 mph - N/A   Clear
3:54 AM 8.6 °F - -0.4 °F 67% 30.62 in 10.0 mi Calm Calm - N/A   Clear
4:14 AM 8.6 °F 2.0 °F -0.4 °F 67% 30.61 in 10.0 mi SE 3.5 mph - N/A   Clear
4:34 AM 6.8 °F -0.1 °F -2.2 °F 67% 30.60 in 10.0 mi SSE 3.5 mph - N/A   Clear
4:54 AM 6.8 °F -2.0 °F -0.4 °F 72% 30.59 in 10.0 mi SSE 4.6 mph - N/A   Clear
5:14 AM 8.6 °F -1.3 °F -0.4 °F 67% 30.58 in 10.0 mi South 5.8 mph - N/A   Clear
5:34 AM 8.6 °F -1.3 °F -2.2 °F 62% 30.58 in 10.0 mi SSE 5.8 mph - N/A   Clear
5:53 AM 8.6 °F -1.3 °F -0.4 °F 67% 30.58 in 10.0 mi South 5.8 mph - N/A   Clear
6:14 AM 10.4 °F 2.2 °F -0.4 °F 62% 30.57 in 10.0 mi South 4.6 mph - N/A   Clear
6:34 AM 10.4 °F -1.5 °F -0.4 °F 62% 30.56 in 10.0 mi South 8.1 mph - N/A   Clear
6:54 AM 10.4 °F -1.5 °F -0.4 °F 62% 30.56 in 10.0 mi South 8.1 mph - N/A   Clear
7:14 AM 10.4 °F -2.4 °F -0.4 °F 62% 30.55 in 10.0 mi South 9.2 mph - N/A   Clear
7:34 AM 12.2 °F 1.7 °F -0.4 °F 57% 30.54 in 10.0 mi South 6.9 mph - N/A   Clear
7:54 AM 12.2 °F 0.7 °F -0.4 °F 57% 30.53 in 10.0 mi South 8.1 mph - N/A   Clear
8:14 AM 12.2 °F -1.0 °F 1.4 °F 62% 30.52 in 10.0 mi South 10.4 mph - N/A   Clear
8:33 AM 15.8 °F 4.2 °F 1.4 °F 53% 30.52 in 10.0 mi South 9.2 mph - N/A   Clear
8:54 AM 15.8 °F 2.7 °F 1.4 °F 53% 30.51 in 10.0 mi South 11.5 mph 18.4 mph N/A   Clear
9:14 AM 17.6 °F 6.4 °F 3.2 °F 53% 30.50 in 10.0 mi South 9.2 mph - N/A   Clear
9:34 AM 19.4 °F 6.0 °F 1.4 °F 46% 30.49 in 10.0 mi South 13.8 mph 24.2 mph N/A   Clear
9:54 AM 21.2 °F 7.8 °F 3.2 °F 46% 30.48 in 10.0 mi South 15.0 mph 21.9 mph N/A   Clear
10:14 AM 21.2 °F 8.9 °F 3.2 °F 46% 30.46 in 10.0 mi South 12.7 mph 21.9 mph N/A   Clear
10:34 AM 23.0 °F 10.6 °F 3.2 °F 43% 30.45 in 10.0 mi South 13.8 mph 20.7 mph N/A   Clear
10:54 AM 24.8 °F 11.9 °F 3.2 °F 40% 30.43 in 10.0 mi South 16.1 mph 23.0 mph N/A   Clear
11:14 AM 24.8 °F 10.7 °F 3.2 °F 40% 30.41 in 10.0 mi South 19.6 mph 25.3 mph N/A   Clear
11:34 AM 24.8 °F 13.4 °F 3.2 °F 40% 30.39 in 10.0 mi South 12.7 mph 26.5 mph N/A   Clear
11:54 AM 26.6 °F 13.4 °F 3.2 °F 37% 30.37 in 10.0 mi South 18.4 mph 26.5 mph N/A   Clear
12:13 PM 26.6 °F 15.2 °F 5.0 °F 40% 30.35 in 10.0 mi South 13.8 mph 23.0 mph N/A   Clear
12:34 PM 28.4 °F 17.5 °F 6.8 °F 40% 30.32 in 10.0 mi South 13.8 mph 25.3 mph N/A   Clear
12:54 PM 28.4 °F 15.8 °F 6.8 °F 40% 30.30 in 10.0 mi South 18.4 mph 27.6 mph N/A   Clear
1:14 PM 28.4 °F 16.2 °F 6.8 °F 40% 30.28 in 10.0 mi South 17.3 mph 26.5 mph N/A   Clear
1:34 PM 30.2 °F 20.2 °F 6.8 °F 37% 30.27 in 10.0 mi South 12.7 mph 23.0 mph N/A   Clear
1:54 PM 30.2 °F 18.1 °F 6.8 °F 37% 30.26 in 10.0 mi South 18.4 mph 24.2 mph N/A   Clear
2:14 PM 30.2 °F 18.5 °F 6.8 °F 37% 30.25 in 10.0 mi South 17.3 mph 24.2 mph N/A   Clear
2:34 PM 30.2 °F 19.3 °F 8.6 °F 40% 30.24 in 10.0 mi South 15.0 mph 21.9 mph N/A   Clear
2:54 PM 30.2 °F 19.3 °F 8.6 °F 40% 30.23 in 10.0 mi South 15.0 mph 21.9 mph N/A   Clear
3:14 PM 32.0 °F 22.1 °F 8.6 °F 38% 30.22 in 10.0 mi South 13.8 mph 18.4 mph N/A   Clear
3:34 PM 30.2 °F 19.8 °F 8.6 °F 40% 30.22 in 10.0 mi South 13.8 mph 25.3 mph N/A   Clear
3:54 PM 30.2 °F 20.2 °F 8.6 °F 40% 30.21 in 10.0 mi South 12.7 mph 21.9 mph N/A   Clear
4:14 PM 30.2 °F 20.2 °F 8.6 °F 40% 30.20 in 10.0 mi South 12.7 mph 19.6 mph N/A   Clear
4:34 PM 28.4 °F 17.0 °F 8.6 °F 43% 30.19 in 10.0 mi South 15.0 mph 20.7 mph N/A   Clear
4:54 PM 28.4 °F 17.0 °F 10.4 °F 47% 30.19 in 10.0 mi South 15.0 mph 19.6 mph N/A   Clear
5:14 PM 28.4 °F 17.5 °F 10.4 °F 47% 30.18 in 10.0 mi South 13.8 mph 20.7 mph N/A   Clear
5:34 PM 26.6 °F 15.2 °F 10.4 °F 51% 30.18 in 10.0 mi South 13.8 mph 21.9 mph N/A   Clear
5:54 PM 26.6 °F 14.3 °F 10.4 °F 51% 30.16 in 10.0 mi South 16.1 mph 24.2 mph N/A   Clear
6:14 PM 26.6 °F 14.3 °F 10.4 °F 51% 30.16 in 10.0 mi South 16.1 mph 21.9 mph N/A   Clear
6:34 PM 26.6 °F 13.8 °F 8.6 °F 47% 30.15 in 10.0 mi South 17.3 mph 26.5 mph N/A   Clear
6:54 PM 26.6 °F 14.3 °F 8.6 °F 47% 30.13 in 10.0 mi South 16.1 mph 24.2 mph N/A   Clear
7:14 PM 26.6 °F 14.7 °F 8.6 °F 47% 30.12 in 10.0 mi South 15.0 mph 27.6 mph N/A   Clear
7:34 PM 26.6 °F 13.4 °F 8.6 °F 47% 30.09 in 10.0 mi South 18.4 mph 26.5 mph N/A   Clear
7:54 PM 26.6 °F 13.1 °F 8.6 °F 47% 30.09 in 10.0 mi South 19.6 mph 28.8 mph N/A   Clear
8:14 PM 26.6 °F 12.4 °F 10.4 °F 51% 30.06 in 10.0 mi South 21.9 mph 28.8 mph N/A   Clear
8:34 PM 26.6 °F 13.4 °F 10.4 °F 51% 30.05 in 10.0 mi South 18.4 mph 33.4 mph N/A   Clear
8:54 PM 26.6 °F 13.4 °F 8.6 °F 47% 30.06 in 10.0 mi South 18.4 mph 27.6 mph N/A   Clear
9:14 PM 26.6 °F 14.7 °F 10.4 °F 51% 30.06 in 10.0 mi South 15.0 mph 28.8 mph N/A   Clear
9:34 PM 28.4 °F 16.2 °F 10.4 °F 47% 30.06 in 10.0 mi South 17.3 mph 28.8 mph N/A   Mostly Cloudy
9:54 PM 28.4 °F 16.6 °F 10.4 °F 47% 30.06 in 10.0 mi South 16.1 mph 24.2 mph N/A   Overcast
10:14 PM 28.4 °F 15.4 °F 10.4 °F 47% 30.07 in 10.0 mi SSW 19.6 mph 29.9 mph N/A   Overcast
10:34 PM 28.4 °F 16.6 °F 10.4 °F 47% 30.07 in 10.0 mi SSW 16.1 mph 29.9 mph N/A   Overcast
10:54 PM 28.4 °F 16.6 °F 10.4 °F 47% 30.06 in 10.0 mi SSW 16.1 mph 28.8 mph N/A   Overcast
11:14 PM 28.4 °F 18.0 °F 10.4 °F 47% 30.05 in 10.0 mi South 12.7 mph 20.7 mph N/A   Overcast
11:34 PM 28.4 °F 17.0 °F 10.4 °F 47% 30.05 in 10.0 mi South 15.0 mph 20.7 mph N/A   Overcast
11:54 PM 28.4 °F 16.6 °F 10.4 °F 47% 30.04 in 10.0 mi South 16.1 mph 25.3 mph N/A   Overcast